Other Public Products
Issued by NWS Grand Forks, ND

Home | Current Version | Previous Version | Graphics & Text | Print | Product List | Glossary On
Versions: 1 2 3 4 5 6 7 8 9 10 11 12 13 14 15 16 17 18 19 20 21 22 23 24 25 26 27 28 29 30 31 32 33 34 35 36 37 38 39 40 41 42 43 44 45 46 47 48 49 50
000
FPUS83 KFGF 010331
OPUFGF
PRAIRIE TO PINES WEATHER ROUNDUP
NATIONAL WEATHER SERVICE EASTERN NORTH DAKOTA/GRAND FORKS ND
900 PM CST SAT FEB 28 2015

 **SATELLITE DATA USED TO AUGMENT SKY COVER AT AUTOMATED STATIONS**
 *****  WEATHER ACROSS EASTERN NORTH DAKOTA  *****

CITY           SKY/WX    TMP DP  RH WIND       PRES   REMARKS
GRAND FORKS    MOCLDY     9   3  77 W8        30.16S WCI  -3
GRAND FORKS AF CLOUDY     9   1  69 W13       30.16S WCI  -7
GRAND CITY NWS   N/A      9 N/A N/A W7          N/A  WCI  -3
BUXTON         NOT AVBL
DEVILS LAKE    FAIR       5  -2  72 W16       30.12F WCI -14
FARGO          CLOUDY    16   7  67 NW16      30.19R WCI   1
WAHPETON ARPT  CLOUDY    23  18  80 NW10      30.19R WCI  12
$$

 *****  WEATHER ACROSS CENTRAL AND WESTERN NORTH DAKOTA  *****

CITY           SKY/WX    TMP DP  RH WIND       PRES   REMARKS
JAMESTOWN      FAIR       4  -2  76 W10       30.16S WCI -11
BISMARCK       CLEAR     11   3  70 NW6       30.20S WCI   1
MINOT          FAIR       1  -4  79 SW8       30.13F WCI -13
MINOT AFB      FAIR       0  -5  82 W13       30.13F WCI -18
GARRISON         N/A      2  -3  80 W6        30.15F WCI  -9
WILLISTON      CLEAR      2  -4  76 VRB3      30.15S
DICKINSON      CLEAR      5   0  79 W6        30.11S WCI  -6
HETTINGER      PTCLDY     7   1  76 W5        30.14S WCI  -2
$$

 *****  OTHER OBSERVATIONS NORTHEAST NORTH DAKOTA  *****

CITY           SKY/WX    TMP DP  RH WIND       PRES   REMARKS
WALHALLA         N/A      7   0  72 W13G21    30.10S WCI  -9
LANGDON        NOT AVBL
CAVALIER       FAIR       9   1  72 W10       30.12S WCI  -6
GRAFTON        NOT AVBL
CANDO          FAIR       1  -2  85 W14       30.12S WCI -17
FORT TOTTEN      N/A      3  -2  79 W3        29.95S
ROLLA          FAIR       5   0  78 W21G26    30.07S WCI -16
RUGBY          FAIR      -2  -6  84 SW10      30.14S WCI -19
 ***** THE ABOVE OBSERVATIONS ARE NON NWS ARE NOT QUALITY
        CONTROLLED AND MAY MIS-REPORT RAIN FOR SNOW...
$$

 *****  OTHER OBSERVATIONS SOUTHEAST NORTH DAKOTA *****

CITY           SKY/WX    TMP DP  RH WIND       PRES   REMARKS
COOPERSTOWN    NOT AVBL
VALLEY CITY    FAIR       5   0  78 W12       30.17S WCI -11
OAKES            N/A      9   3  78 NW13      30.20R WCI  -7
GWINNER        CLEAR     14   5  67 NW17      30.20R WCI  -3
BUFFALO        NOT AVBL
WYNDMERE         N/A     18  10  73 NW14        N/A  WCI   4
 ***** THE ABOVE OBSERVATIONS ARE NON NWS ARE NOT QUALITY
       CONTROLLED AND MAY MIS-REPORT RAIN FOR SNOW...
$$

  *****  WEATHER ACROSS NORTHERN MINNESOTA  *****

CITY           SKY/WX    TMP DP  RH WIND       PRES   REMARKS
FLAG ISLAND    LGT SNOW  19  16  86 SW10      30.03F WCI   8
WARROAD        LGT SNOW  18  12  79 SW8       30.06S WCI   7
ROSEAU         LGT SNOW  19  14  79 W12G17    30.06S WCI   7
HALLOCK        FAIR       7   1  78 W12       30.12R WCI  -9
THF RVR FALLS  CLOUDY    14   9  79 W13       30.11S WCI   0
HALSTAD          N/A     11   3  71 W10         N/A  WCI  -3
FOSSTON        LGT SNOW  18  14  86 SW10      30.12R WCI   6
BAUDETTE       LGT SNOW  19  15  84 S10       30.04F FOG     WCI   7
WASKISH        FLURRIES  19  14  79 S6G18     30.09S WCI  11
CROOKSTON      FAIR      10   5  79 W10       30.17R WCI  -3
$$
  *****  WEATHER ACROSS CENTRAL AND WEST MINNESOTA  *****

CITY           SKY/WX    TMP DP  RH WIND       PRES   REMARKS
BEMIDJI        LGT SNOW  17  13  86 S9        30.11S WCI   5
PARK RAPIDS    LGT SNOW  18  13  80 S13       30.13F WCI   5
WADENA         FLURRIES  16  10  79 S10       30.15F WCI   3
DETROIT LAKES  LGT SNOW  21  18  86 SW10      30.14S WCI  10
MOORHEAD       CLOUDY    16  10  79 NW13      30.20R WCI   2
FERGUS FALLS   LGT SNOW  18  14  86 S9        30.21S WCI   6
ELBOW LAKE     CLOUDY    18  14  84 S15       30.17S WCI   4
MORRIS MN      CLOUDY    18  14  86 SE12      30.18S WCI   5
STAPLES        FLURRIES  14  10  85 S10       30.18S WCI   1
WHEATON        NOT AVBL
$$
  *****  WEATHER ELSEWHERE ACROSS MINNESOTA  *****

CITY           SKY/WX    TMP DP  RH WIND       PRES   REMARKS
DULUTH         MOCLDY    15   2  56 SW14      30.21F WCI   0
INTRNTL FALLS  MOCLDY    19   4  51 VRB6      30.10F WCI  11
ELY            MOCLDY    16   1  53 SW13      30.16F WCI   2
CLOQUET        CLOUDY    12   1  62 S10       30.22F WCI  -1
BRAINERD       CLOUDY    14   8  77 S13       30.21F WCI   0
HIBBING        LGT SNOW  16   5  62 SW7G18    30.18F WCI   6
ALEXANDRIA     CLOUDY    17  13  84 S12       30.18F WCI   4
SAINT CLOUD    CLOUDY    13   7  77 S12       30.26F WCI  -1
MINNEAPOLIS    MOCLDY    13   2  61 S12       30.34F WCI  -1
$$

  *****  WEATHER ACROSS SOUTH DAKOTA  *****

CITY           SKY/WX    TMP DP  RH WIND       PRES   REMARKS
SIOUX FALLS    MOCLDY    20  12  71 S15       30.21S WCI   6
BROOKINGS      NOT AVBL
WATERTOWN      CLOUDY    20  13  74 SW7       30.13S WCI  11
HURON          CLEAR     13  10  88 NW10      30.21R WCI   0
SISSETON         N/A     23  17  78 NW8       30.17S WCI  14
ABERDEEN       PTCLDY    17   8  67 NW10      30.21R WCI   5
MITCHELL       CLEAR     20  13  74 NW8       30.22R WCI  10
PIERRE         CLEAR     14   7  73 NW9       30.22R WCI   2
MOBRIDGE       PTCLDY     7   2  80 CALM      30.17S
RAPID CITY     CLOUDY    16   9  74 N12       30.15R WCI   3
$$

  *****  SOME WEATHER IN NEARBY STATES *****

CITY           SKY/WX    TMP DP  RH WIND       PRES   REMARKS
GLASGOW MT     MOCLDY    19  10  68 W10       30.14S WCI   7
GREAT FALLS MT CLEAR     14   8  77 SW10      30.16R WCI   1
CHEYENNE WY    CLOUDY    19  11  70 E7        29.94S WCI  10
SCOTTSBLUFF NE MOCLDY    23  11  60 NE8       30.07R WCI  14
OMAHA NE       FLURRIES  23  19  85 S7        30.37R WCI  15
DES MOINES IA  FLURRIES  22  17  81 SE7       30.39S WCI  13
DAVENPORT IA   FAIR      11   6  81 E7        30.47F WCI   0
CHICAGO IL     LGT SNOW  18  13  80 S7        30.50F WCI   9
EAU CLAIRE WI  MOCLDY    13  -2  51 S8        30.38S WCI   2
LA CROSSE WI   CLOUDY    17   1  49 S10       30.43F WCI   5
$$

  *****  SOME NATIONAL WEATHER *****

CITY           SKY/WX    TMP DP  RH WIND       PRES   REMARKS
LA GUARDIA NY  FAIR      27   3  35 W5        30.75S WCI  22
RALEIGH NC     MOCLDY    29  15  56 CALM      30.71S
ATLANTA GA     CLOUDY    46  29  51 E14       30.54R
NEW ORLEANS LA MOCLDY    57  50  77 E9        30.34R
OKLAHOMA CITY  FRZ DRZL  27  23  85 E5        30.32R FOG     WCI  22
ALBUQUERQUE NM MOCLDY    33  28  81 W8        29.96R
SALT LAKE CITY LGT RAIN  35  32  88 S7        29.85R
LOS ANGELES CA MOCLDY    57  46  66 W9        29.88R
BOISE ID       MOCLDY    40  34  79 W3        29.91R
SEATTLE WA     PTCLDY    47  25  42 N8        30.20R
$$

*** WEATHER ACROSS MANITOBA...SASKATCHEWAN AND ONTARIO ***
                ***ONTARIO***

CITY           SKY/WX    TMP DP  RH WIND       PRES   REMARKS
GERALDTON      PTCLDY    12   7  79 SW13G20   30.17F WCI  -3
THUNDER BAY    CLOUDY    14   5  67 NE5       30.23F WCI   6
SIOUX LOOKOUT  CLOUDY    18   1  49 S8        30.04S WCI   7
TORONTO        CLEAR     12   1  62 W5        30.63F WCI   4
BIG TROUT LK   CLEAR      7   1  78 SW8       29.91F WCI  -6
PICKLE LAKE    NOT AVBL
DRYDEN         CLOUDY    19   3  49 SW10G17   30.03F WCI   8
KENORA         LGT SNOW  18  16  93 SW8       30.01S WCI   7
$$
                *** MANITOBA***

CITY           SKY/WX    TMP DP  RH WIND       PRES   REMARKS
BRANDON        CLEAR      1  -4  78 W17       30.06F WCI -19
DAUPHIN        CLEAR      9   1  72 W17       30.02F WCI -10
ISLAND LAKE    PTCLDY    14   3  62 SW6       29.91F WCI   5
PILOT MOUND      N/A      1  -4  78 W3          N/A
THE PAS        PTCLDY    10   7  85 W7        29.97S WCI   0
THOMPSON       FLURRIES   7   5  92 W3        29.90S
WINNIPEG       CLEAR      7  -2  66 W12       30.07S WCI  -9
LYNN LAKE      CLEAR      3  -8  60 NW8       29.93R WCI -10
CHURCHILL      PTCLDY    -8 -15  71 NW23G32   29.90R WCI -33
GILLAM         LGT SNOW   9   5  85 NW9       29.85S WCI  -5
$$
                ***SASKATCHEWAN***

CITY           SKY/WX    TMP DP  RH WIND       PRES   REMARKS
ESTEVAN        PTCLDY    -2  -8  78 SW10      30.09F WCI -19
KINDERSLEY     LGT SNOW  18  14  86 W13       30.10S DRFTSNOWWCI   4
LLOYDMINSTER   CLOUDY    21  18  86 NW9       30.11R WCI  11
PRINCE ALBERT  PTCLDY    16  10  79 NW10      30.04S WCI   3
REGINA         FLURRIES  10   7  85 W14       30.05F WCI  -5
YORKTON        LGT SNOW   9   3  78 W10       30.00F WCI  -6



USA.gov is the U.S. government's official web portal to all federal, state and local government web resources and services.